Location: Washington
(38.8950°N, 77.0370°W)
Time: 06:26:26
(UTC-04:00)

Tiangong 1 - Visible Passes

Search period start: 02 October 2014 00:00
Search period end: 12 October 2014 00:00
Orbit: 359 x 368 km, 42.8° (Epoch: 01 October)

Date Brightness Start Highest point End Pass type
(mag) Time Alt. Az. Time Alt. Az. Time Alt. Az.
02 Oct 3.6 04:59:11 19° ESE 04:59:11 19° ESE 05:00:26 10° E visible
02 Oct 1.1 06:31:00 10° W 06:33:59 63° NNW 06:36:59 10° ENE visible
03 Oct 1.2 05:27:45 66° ESE 05:27:45 66° ESE 05:30:29 10° ENE visible
04 Oct 1.3 05:56:09 33° WNW 05:57:10 51° NNW 06:00:08 10° ENE visible
05 Oct 4.0 04:52:38 17° ENE 04:52:38 17° ENE 04:53:27 10° ENE visible
05 Oct 1.9 06:24:24 12° WNW 06:26:53 37° N 06:29:43 10° ENE visible
06 Oct 2.4 05:20:45 34° NE 05:20:45 34° NE 05:22:52 10° ENE visible
07 Oct 2.0 05:48:46 31° NNW 05:49:28 36° N 05:52:18 10° ENE visible
08 Oct 4.5 04:44:57 12° ENE 04:44:57 12° ENE 04:45:12 10° ENE visible
08 Oct 1.7 06:16:42 16° WNW 06:18:53 45° N 06:21:47 10° E visible
09 Oct 3.1 05:12:48 26° NE 05:12:48 26° NE 05:14:29 10° ENE visible
10 Oct 1.4 05:40:36 51° N 05:40:49 53° NNE 05:43:46 10° E visible
11 Oct 0.9 06:08:22 28° WNW 06:09:45 71° SSW 06:12:44 10° ESE visible
